Location: Monroe
(41.9160°N, 83.3980°W)
Time: 07:10:30
(UTC-04:00)

Amateur Radio Satellites - All Passes

Search period start: 23 July 2016 06:40
Search period end: 24 July 2016 06:40
Location: Monroe, 41.9160°N, 83.3980°W

Satellite Date Start Highest point End Downlink Frequencies (MHz)
Time Altitude Azimuth
LilacSat-2 23 Jul 06:59:54 07:02:37 18° 93° (E) 07:05:18 437.200
NOAA 15 23 Jul 07:00:46 07:05:23 30° 96° (E) 07:09:59 137.62
AO-7 23 Jul 07:01:07 07:08:22 35° 302° (WNW) 07:15:34 29.400- 29.500
STRAND 1 23 Jul 07:07:01 07:11:25 29° 66° (ENE) 07:15:50 437.568
AIST 2 23 Jul 07:19:46 07:23:39 36° 50° (NE) 07:27:31 435.215
ISS 23 Jul 07:29:16 07:31:25 17° 228° (SW) 07:33:34 145.825
CUBESAT XI-V 23 Jul 07:34:54 07:36:28 12° 271° (W) 07:38:03 437.345
Cubesat XI-IV 23 Jul 07:39:16 07:44:30 52° 100° (E) 07:49:41 437.490
DANDE 23 Jul 07:39:31 07:41:52 13° 289° (WNW) 07:44:01 436.750
HORYU 2 23 Jul 07:40:27 07:43:59 23° 294° (WNW) 07:47:29 437.375
GOMX 1 23 Jul 07:40:49 07:45:34 46° 99° (E) 07:50:34 467.674
RS-15 23 Jul 07:44:15 07:54:48 46° 109° (ESE) 08:05:53 29.354- 29.394
BRITE-PL 23 Jul 07:52:44 07:57:21 65° 285° (WNW) 08:02:19 437.365/2234.400
DOVE 4 23 Jul 07:57:43 08:02:16 33° 96° (E) 08:06:57 437.250
NOAA 18 23 Jul 08:00:56 08:06:32 79° 104° (ESE) 08:12:03 137.9125
CUTE-I 23 Jul 08:04:24 08:09:47 87° 105° (ESE) 08:15:07 437.470
O/OREOS (USA 219) 23 Jul 08:10:05 08:14:37 75° 66° (ENE) 08:19:10 437.305
PCSat 23 Jul 08:18:29 08:20:08 11° 258° (WSW) 08:21:47 145.827
CUTE 1.7 + AOD 2 23 Jul 08:24:10 08:25:27 11° 89° (E) 08:26:42 437.475
LilacSat-2 23 Jul 08:33:30 08:36:59 32° 289° (WNW) 08:40:26 437.200
Cosmos 2491 23 Jul 08:34:14 08:40:47 23° 64° (ENE) 08:47:19 435.465 / 435.565
NOAA 15 23 Jul 08:40:26 08:45:09 34° 293° (WNW) 08:49:51 137.62
CINEMA 3 23 Jul 08:43:34 08:47:53 28° 94° (E) 08:52:12 145.822/145.860
STRAND 1 23 Jul 08:45:48 08:50:28 35° 263° (W) 08:55:11 437.568
AIST 2 23 Jul 08:58:39 09:01:56 22° 247° (WSW) 09:05:12 435.215
SEEDS 23 Jul 09:09:59 09:13:32 26° 95° (E) 09:17:02 437.485
PRISM 23 Jul 09:17:05 09:21:09 78° 76° (ENE) 09:25:14 437.425
GOMX 1 23 Jul 09:19:38 09:23:22 22° 293° (WNW) 09:27:17 467.674
Cubesat XI-IV 23 Jul 09:20:10 09:24:11 22° 297° (WNW) 09:28:12 437.490
COMPASS 1 23 Jul 09:30:20 09:34:01 31° 96° (E) 09:37:42 437.405
HO-68 23 Jul 09:33:56 09:41:07 66° 103° (ESE) 09:48:14 435.675
DOVE 4 23 Jul 09:35:27 09:39:52 31° 291° (WNW) 09:44:25 437.250
Oscar 11 23 Jul 09:36:57 09:38:29 12° 90° (E) 09:40:01 145.826/435.025
ANTELSAT 23 Jul 09:40:57 09:43:05 13° 61° (ENE) 09:45:13 437.575/2403.000
CANX-2 23 Jul 09:43:06 09:47:20 78° 283° (WNW) 09:51:31 2200.000
NOAA 18 23 Jul 09:43:14 09:46:29 16° 302° (WNW) 09:49:43 137.9125
CUTE-I 23 Jul 09:46:32 09:49:04 14° 302° (WNW) 09:51:35 437.470
SO-50 23 Jul 09:47:46 09:52:25 46° 117° (ESE) 09:57:03 436.795
O/OREOS (USA 219) 23 Jul 09:52:31 09:53:21 10° 263° (W) 09:54:12 437.305
RS-15 23 Jul 09:55:38 10:06:59 58° 313° (NW) 10:18:59 29.354- 29.394
CUTE 1.7 + AOD 2 23 Jul 09:57:30 10:01:41 61° 285° (WNW) 10:05:49 437.475
AAUSAT CUBESAT 2 23 Jul 10:03:01 10:07:05 58° 100° (E) 10:11:08 437.432
YUBILEINY 23 Jul 10:05:03 10:12:32 33° 83° (E) 10:20:02 435.215
UWE-3 23 Jul 10:09:11 10:13:37 42° 98° (E) 10:17:56 435.000/436.395/437.385
ZACube-1 23 Jul 10:20:19 10:24:31 36° 97° (E) 10:28:36 437.345
CINEMA 3 23 Jul 10:20:30 10:25:00 34° 291° (WNW) 10:29:31 145.822/145.860
CUBEBUG 2 23 Jul 10:21:23 10:26:10 84° 104° (ESE) 10:30:51 437.445
TIGRISAT 23 Jul 10:21:45 10:25:45 31° 68° (ENE) 10:29:51 435.000
FUNcube-1 23 Jul 10:22:00 10:26:09 35° 96° (E) 10:30:12 145.935
M-CUBED/EXP-1 PRIME 23 Jul 10:28:00 10:30:48 16° 96° (E) 10:33:35 437.505
Cosmos 2491 23 Jul 10:29:53 10:38:39 80° 265° (W) 10:47:25 435.465 / 435.565
UNISAT 6 23 Jul 10:36:08 10:40:30 45° 71° (ENE) 10:44:58 437.425
HUMSAT D 23 Jul 10:40:45 10:42:24 12° 90° (E) 10:44:03 437.325/437.525
SEEDS 23 Jul 10:45:41 10:49:10 26° 291° (WNW) 10:52:36 437.485
Cosmos 2504 23 Jul 10:50:03 10:56:11 21° 78° (ENE) 11:02:20 435.465 / 435.565
AUBIESAT-1 23 Jul 10:57:16 11:01:07 25° 100° (E) 11:04:57 437.475
DELFI C3 23 Jul 11:04:01 11:07:49 46° 99° (E) 11:11:37 145.870
COMPASS 1 23 Jul 11:06:14 11:09:25 22° 293° (WNW) 11:12:36 437.405
Oscar 11 23 Jul 11:10:45 11:15:02 62° 285° (WNW) 11:19:16 145.826/435.025
NANOSAT C BR1 23 Jul 11:10:54 11:13:30 16° 64° (ENE) 11:16:07 145.865
ANTELSAT 23 Jul 11:14:34 11:19:08 73° 258° (WSW) 11:23:51 437.575/2403.000
DUCHIFAT 1 23 Jul 11:17:12 11:20:00 18° 65° (ENE) 11:22:49 145.980
HO-68 23 Jul 11:22:33 11:28:16 26° 302° (WNW) 11:33:58 435.675
SO-50 23 Jul 11:28:57 11:33:05 27° 315° (NW) 11:37:12 436.795
QB50P1 23 Jul 11:29:33 11:33:04 26° 68° (ENE) 11:36:37 145.935-145.965
POPSAT HIP 1 23 Jul 11:35:22 11:39:03 30° 69° (ENE) 11:42:46 437.405
AAUSAT CUBESAT 2 23 Jul 11:40:18 11:42:05 13° 297° (WNW) 11:43:50 437.432
UWE-3 23 Jul 11:46:19 11:49:45 21° 295° (WNW) 11:53:08 435.000/436.395/437.385
BUGSAT 1 23 Jul 11:50:37 11:53:19 17° 65° (ENE) 11:56:04 437.445
QB50P2 23 Jul 11:54:37 11:58:43 52° 73° (ENE) 12:02:53 145.880/145.840
ZACube-1 23 Jul 11:57:01 12:00:34 23° 294° (WNW) 12:04:03 437.345
POLYITAN 1 23 Jul 11:57:14 12:01:22 53° 73° (ENE) 12:05:33 437.675
TIGRISAT 23 Jul 11:58:30 12:02:24 27° 265° (W) 12:06:23 435.000
FUNcube-1 23 Jul 11:58:36 12:02:10 23° 294° (WNW) 12:05:40 145.935
YUBILEINY 23 Jul 12:00:17 12:08:51 56° 284° (WNW) 12:17:31 435.215
CUBEBUG 2 23 Jul 12:00:22 12:02:03 12° 300° (WNW) 12:03:44 437.445
M-CUBED/EXP-1 PRIME 23 Jul 12:01:00 12:05:35 60° 292° (WNW) 12:10:13 437.505
RS-15 23 Jul 12:13:20 12:22:54 27° 344° (NNW) 12:32:47 29.354- 29.394
HUMSAT D 23 Jul 12:14:15 12:18:24 57° 286° (WNW) 12:22:29 437.325/437.525
UNISAT 6 23 Jul 12:14:15 12:17:26 18° 268° (W) 12:20:41 437.425
VELOX 1 23 Jul 12:15:58 12:18:14 14° 91° (E) 12:20:30 145.980
CUBEBUG 1 23 Jul 12:28:05 12:31:28 22° 94° (E) 12:34:51 437.445
Cosmos 2491 23 Jul 12:29:31 12:33:59 15° 285° (WNW) 12:38:29 435.465 / 435.565
AUBIESAT-1 23 Jul 12:31:22 12:35:34 36° 295° (WNW) 12:39:48 437.475
Cosmos 2504 23 Jul 12:39:37 12:48:27 84° 278° (W) 12:57:24 435.465 / 435.565
DELFI C3 23 Jul 12:40:13 12:42:17 14° 296° (WNW) 12:44:20 145.870
SPROUT 23 Jul 12:44:17 12:46:14 13° 90° (E) 12:48:12 437.525
NANOSAT C BR1 23 Jul 12:44:47 12:48:51 47° 261° (W) 12:52:58 145.865
DUCHIFAT 1 23 Jul 12:51:22 12:55:22 42° 261° (W) 12:59:25 145.980
JAS-2 23 Jul 12:55:18 13:01:32 66° 73° (ENE) 13:07:06 435.910
AISAT 23 Jul 12:58:43 13:02:57 41° 99° (E) 13:07:10 437.250
QB50P1 23 Jul 13:05:10 13:08:46 27° 264° (W) 13:12:24 145.935-145.965
POPSAT HIP 1 23 Jul 13:11:24 13:14:50 24° 265° (W) 13:18:18 437.405
DX 1 23 Jul 13:14:12 13:18:22 42° 99° (E) 13:22:30 434.975-435.025
ESTCUBE 1 23 Jul 13:15:07 13:19:37 79° 285° (WNW) 13:24:05 437.505/2401.250
BUGSAT 1 23 Jul 13:24:35 13:28:23 39° 262° (W) 13:32:16 437.445
QB50P2 23 Jul 13:32:41 13:34:51 14° 269° (W) 13:37:01 145.880/145.840
Oscar 19 23 Jul 13:35:14 13:40:01 42° 69° (ENE) 13:44:50 437.125/150
POLYITAN 1 23 Jul 13:35:23 13:37:30 13° 269° (W) 13:39:36 437.675
UKube-1 23 Jul 13:36:15 13:40:31 58° 101° (E) 13:44:47 .
50 SAT 23 Jul 13:38:45 13:42:18 57° 285° (WNW) 13:45:49 437.505
VELOX 1 23 Jul 13:50:41 13:55:02 56° 287° (WNW) 13:59:23 145.980
TISAT 1 23 Jul 13:55:04 13:58:02 18° 93° (E) 14:00:59 437.305
CUBEBUG 1 23 Jul 14:03:50 14:07:50 35° 290° (WNW) 14:11:49 437.445
YUBILEINY 23 Jul 14:06:14 14:08:01 11° 307° (NW) 14:09:49 435.215
AO-7 23 Jul 14:18:05 14:23:34 20° 49° (NE) 14:29:02 29.400- 29.500
SPROUT 23 Jul 14:18:17 14:22:32 57° 287° (WNW) 14:26:46 437.525
Gurwin Techsat 1B 23 Jul 14:20:01 14:25:09 50° 70° (ENE) 14:30:17 435.225
RS-15 23 Jul 14:30:56 14:40:58 28° 19° (NNE) 14:51:03 29.354- 29.394
AISAT 23 Jul 14:35:56 14:39:07 20° 295° (WNW) 14:42:18 437.250
Cosmos 2504 23 Jul 14:37:22 14:43:14 19° 299° (WNW) 14:49:09 435.465 / 435.565
JAS-2 23 Jul 14:42:50 14:46:56 18° 267° (W) 14:50:47 435.910
DX 1 23 Jul 14:51:11 14:54:15 19° 295° (WNW) 14:57:17 434.975-435.025
AIST 1 23 Jul 14:59:07 15:03:22 78° 278° (W) 15:07:38
ITAMSAT 1 23 Jul 14:59:55 15:04:47 40° 69° (ENE) 15:09:40 435.822/435.867
SWISSCUBE 23 Jul 15:02:24 15:06:02 21° 94° (E) 15:09:37 437.505
CUSAT 1 23 Jul 15:09:02 15:09:34 10° 74° (ENE) 15:10:06 437.405
UKube-1 23 Jul 15:13:50 15:16:05 14° 298° (WNW) 15:18:20 .
Oscar 19 23 Jul 15:15:28 15:19:30 23° 266° (W) 15:23:34 437.125/150
AO-85 23 Jul 15:21:33 15:26:39 44° 117° (ESE) 15:31:35 145.980
BEESAT 23 Jul 15:23:50 15:28:04 31° 96° (E) 15:32:17 436.000
TISAT 1 23 Jul 15:29:52 15:33:50 39° 289° (WNW) 15:37:47 437.305
ITUPSAT 1 23 Jul 15:43:46 15:48:24 48° 100° (E) 15:53:00 437.325
Cosmos 2499 23 Jul 15:54:13 16:01:21 28° 82° (E) 16:08:24 435.465 / 435.565
Gurwin Techsat 1B 23 Jul 16:01:25 16:05:21 21° 267° (W) 16:09:20 435.225
AO-7 23 Jul 16:06:42 16:15:03 79° 69° (ENE) 16:23:27 29.400- 29.500
GONETS M04 23 Jul 16:07:34 16:15:40 46° 88° (E) 16:23:47
DANDE 23 Jul 16:31:51 16:34:17 34° 77° (ENE) 16:36:45 436.750
SWISSCUBE 23 Jul 16:39:30 16:43:58 41° 290° (WNW) 16:48:24 437.505
KKS-1 23 Jul 16:39:31 16:43:02 22° 94° (E) 16:46:32 437.445
ITAMSAT 1 23 Jul 16:40:04 16:44:22 25° 265° (W) 16:48:41 435.822/435.867
MOZHAYETS 4 23 Jul 16:42:46 16:46:37 26° 95° (E) 16:50:26
RS-15 23 Jul 16:44:24 16:56:41 63° 49° (NE) 17:08:48 29.354- 29.394
CUSAT 1 23 Jul 16:49:14 16:51:30 22° 264° (W) 16:54:06 437.405
BEESAT 23 Jul 17:01:42 17:05:46 28° 293° (WNW) 17:09:48 436.000
HORYU 2 23 Jul 17:01:42 17:05:45 34° 69° (ENE) 17:09:49 437.375
AO-85 23 Jul 17:02:35 17:07:18 31° 313° (NW) 17:11:49 145.980
ITUPSAT 1 23 Jul 17:22:31 17:25:52 19° 297° (WNW) 17:29:13 437.325
Cubesat XI-IV 23 Jul 17:25:22 17:27:38 13° 57° (ENE) 17:29:55 437.490
BRITE-PL 23 Jul 17:28:37 17:30:43 14° 64° (ENE) 17:32:49 437.365/2234.400
STARS 23 Jul 17:29:23 17:33:30 37° 98° (E) 17:37:37 437.465
LilacSat-2 23 Jul 17:44:19 17:45:06 11° 63° (ENE) 17:45:55 437.200
Cosmos 2499 23 Jul 17:44:57 17:53:47 67° 281° (W) 18:02:33 435.465 / 435.565
CUTE-I 23 Jul 17:48:30 17:52:22 21° 62° (ENE) 17:56:15 437.470
NOAA 18 23 Jul 17:48:51 17:53:01 22° 62° (ENE) 17:57:12 137.9125
CUBESAT XI-V 23 Jul 17:51:17 17:54:16 17° 92° (E) 17:57:15 437.345
AO-7 23 Jul 18:02:28 18:08:37 22° 268° (W) 18:14:49 29.400- 29.500
GONETS M04 23 Jul 18:04:33 18:12:32 40° 288° (WNW) 18:20:37
KKS-1 23 Jul 18:15:35 18:19:40 35° 290° (WNW) 18:23:45 437.445
SO-50 23 Jul 18:18:58 18:23:26 44° 50° (NE) 18:27:45 436.795
MOZHAYETS 4 23 Jul 18:19:44 18:23:47 31° 291° (WNW) 18:27:46
NOAA 15 23 Jul 18:21:01 18:26:04 51° 71° (ENE) 18:31:08 137.62
HO-68 23 Jul 18:23:00 18:23:24 10° 46° (NE) 18:23:47 435.675
HORYU 2 23 Jul 18:38:48 18:42:21 23° 265° (W) 18:45:56 437.375
GOMX 1 23 Jul 18:50:02 18:53:58 44° 72° (ENE) 18:58:01 467.674
RS-15 23 Jul 18:57:31 19:08:45 44° 252° (WSW) 19:19:50 29.354- 29.394
Cubesat XI-IV 23 Jul 19:01:30 19:06:53 87° 72° (ENE) 19:12:18 437.490
DOVE 4 23 Jul 19:04:13 19:07:51 29° 68° (ENE) 19:11:39 437.250
BRITE-PL 23 Jul 19:04:44 19:08:49 50° 260° (W) 19:12:52 437.365/2234.400
STARS 23 Jul 19:06:15 19:09:38 22° 294° (WNW) 19:13:01 437.465
LilacSat-2 23 Jul 19:15:02 19:18:51 63° 259° (WSW) 19:22:44 437.200
CUTE-I 23 Jul 19:26:42 19:31:58 56° 259° (W) 19:37:17 437.470
CUBESAT XI-V 23 Jul 19:27:29 19:31:54 48° 288° (WNW) 19:36:19 437.345
NOAA 18 23 Jul 19:27:53 19:33:16 54° 259° (W) 19:38:43 137.9125
PCSat 23 Jul 19:35:51 19:36:41 10° 101° (E) 19:37:31 145.827
PHONESAT 2.4 23 Jul 19:43:41 19:46:18 25° 157° (SSE) 19:48:55 2401.200-2431.200
Cosmos 2499 23 Jul 19:44:18 19:48:42 14° 303° (WNW) 19:53:05 435.465 / 435.565
CINEMA 3 23 Jul 19:45:51 19:49:27 25° 66° (ENE) 19:53:13 145.822/145.860
BEESAT 2 23 Jul 19:52:33 19:54:50 15° 110° (ESE) 19:57:09 435.950
BEESAT 3 23 Jul 19:53:27 19:56:50 29° 115° (ESE) 20:00:15 437.485
SO-50 23 Jul 20:00:06 20:03:36 22° 249° (WSW) 20:07:01 436.795
NOAA 15 23 Jul 20:02:18 20:06:07 20° 267° (W) 20:09:58 137.62
SEEDS 23 Jul 20:02:22 20:05:30 20° 67° (ENE) 20:08:38 437.485
HO-68 23 Jul 20:02:35 20:09:26 51° 66° (ENE) 20:16:20 435.675
YUBILEINY 23 Jul 20:15:01 20:20:10 16° 59° (ENE) 20:25:17 435.215
COMPASS 1 23 Jul 20:21:39 20:24:56 23° 68° (ENE) 20:28:14 437.405
GOMX 1 23 Jul 20:30:02 20:32:22 15° 269° (W) 20:34:45 467.674
Oscar 11 23 Jul 20:33:11 20:34:09 11° 61° (ENE) 20:35:07 145.826/435.025
CANX-2 23 Jul 20:35:40 20:39:57 76° 75° (ENE) 20:44:14 2200.000
DOVE 4 23 Jul 20:42:08 20:45:35 24° 266° (W) 20:49:10 437.250
Cubesat XI-IV 23 Jul 20:45:45 20:47:37 12° 272° (W) 20:49:29 437.490
CUTE 1.7 + AOD 2 23 Jul 20:49:55 20:54:11 86° 252° (WSW) 20:58:30 437.475
AAUSAT CUBESAT 2 23 Jul 20:53:21 20:57:14 39° 72° (ENE) 21:01:08 437.432
STRAND 1 23 Jul 20:55:18 21:00:26 78° 103° (ESE) 21:05:32 437.568
UWE-3 23 Jul 21:06:11 21:10:18 35° 70° (ENE) 21:14:32 435.000/436.395/437.385
PCSat 23 Jul 21:13:44 21:19:10 82° 118° (ESE) 21:24:37 145.827
M-CUBED/EXP-1 PRIME 23 Jul 21:15:13 21:17:37 17° 58° (ENE) 21:20:09 437.505
ZACube-1 23 Jul 21:16:13 21:20:08 30° 69° (ENE) 21:24:07 437.345
FUNcube-1 23 Jul 21:17:37 21:21:30 29° 68° (ENE) 21:25:26 145.935
CUBEBUG 2 23 Jul 21:19:15 21:23:44 71° 75° (ENE) 21:28:25 437.445
PHONESAT 2.4 23 Jul 21:19:30 21:22:33 62° 174° (S) 21:25:36 2401.200-2431.200
CINEMA 3 23 Jul 21:22:27 21:26:26 33° 265° (W) 21:30:37 145.822/145.860
BEESAT 2 23 Jul 21:28:26 21:32:16 48° 307° (NW) 21:36:09 435.950
BEESAT 3 23 Jul 21:31:08 21:34:28 26° 312° (NW) 21:37:53 437.485
HUMSAT D 23 Jul 21:33:54 21:34:27 10° 61° (ENE) 21:35:00 437.325/437.525
SEEDS 23 Jul 21:37:04 21:40:58 35° 263° (W) 21:44:53 437.485
Cosmos 2491 23 Jul 21:37:09 21:43:42 25° 80° (E) 21:50:16 435.465 / 435.565
AUBIESAT-1 23 Jul 21:43:53 21:47:05 27° 63° (ENE) 21:50:30 437.475
DELFI C3 23 Jul 21:50:18 21:53:45 28° 70° (ENE) 21:57:11 145.870
HO-68 23 Jul 21:51:06 21:57:21 32° 264° (W) 22:03:41 435.675
COMPASS 1 23 Jul 21:56:38 22:00:20 30° 264° (W) 22:04:04 437.405
Oscar 11 23 Jul 22:05:16 22:09:37 80° 258° (WSW) 22:14:00 145.826/435.025
YUBILEINY 23 Jul 22:09:43 22:18:37 77° 81° (E) 22:27:26 435.215
O/OREOS (USA 219) 23 Jul 22:22:32 22:26:59 83° 112° (ESE) 22:31:29 437.305
AAUSAT CUBESAT 2 23 Jul 22:30:08 22:32:53 17° 268° (W) 22:35:38 437.432
ISS 23 Jul 22:33:06 22:34:51 14° 131° (SE) 22:36:36 145.825
Cosmos 2504 23 Jul 22:33:08 22:40:46 38° 71° (ENE) 22:47:50 435.465 / 435.565
PRISM 23 Jul 22:33:20 22:37:24 66° 285° (WNW) 22:41:27 437.425
STRAND 1 23 Jul 22:36:17 22:38:57 14° 301° (WNW) 22:41:36 437.568
ESTCUBE 1 23 Jul 22:41:55 22:42:59 11° 60° (ENE) 22:44:04 437.505/2401.250
UWE-3 23 Jul 22:43:15 22:46:50 23° 267° (W) 22:50:30 435.000/436.395/437.385
M-CUBED/EXP-1 PRIME 23 Jul 22:48:23 22:51:48 39° 257° (WSW) 22:55:30 437.505
ZACube-1 23 Jul 22:52:34 22:56:23 27° 266° (W) 23:00:16 437.345
FUNcube-1 23 Jul 22:53:50 22:57:40 28° 265° (W) 23:01:36 145.935
AIST 2 23 Jul 22:55:20 22:59:24 67° 121° (ESE) 23:03:31 435.215
PHONESAT 2.4 23 Jul 22:55:56 22:58:58 55° 190° (S) 23:01:59 2401.200-2431.200
CUBEBUG 2 23 Jul 22:59:22 23:00:54 11° 272° (W) 23:02:27 437.445
PCSat 23 Jul 22:59:30 23:03:14 19° 318° (NW) 23:06:59 145.827
HUMSAT D 23 Jul 23:05:05 23:09:24 82° 259° (W) 23:13:44 437.325/437.525
ANTELSAT 23 Jul 23:06:36 23:10:22 24° 94° (E) 23:14:04 437.575/2403.000
VELOX 1 23 Jul 23:14:10 23:16:22 14° 62° (ENE) 23:18:34 145.980
AUBIESAT-1 23 Jul 23:18:38 23:21:34 22° 261° (W) 23:24:41 437.475
CUBEBUG 1 23 Jul 23:24:48 23:27:52 19° 65° (ENE) 23:30:56 437.445
DELFI C3 23 Jul 23:25:30 23:28:36 21° 266° (W) 23:31:42 145.870
Cosmos 2491 23 Jul 23:31:00 23:39:40 71° 280° (W) 23:48:24 435.465 / 435.565
SPROUT 23 Jul 23:39:22 23:40:38 11° 61° (ENE) 23:41:53 437.525
TIGRISAT 23 Jul 23:48:51 23:53:30 62° 101° (E) 23:58:02 435.000
AO-85 23 Jul 23:53:36 23:57:46 37° 49° (NE) 00:01:36 145.980
AISAT 23 Jul 23:56:21 00:00:23 38° 70° (ENE) 00:04:28 437.250
UNISAT 6 24 Jul 00:03:52 00:08:35 86° 284° (WNW) 00:13:10 437.425
O/OREOS (USA 219) 24 Jul 00:05:18 00:07:01 12° 310° (NW) 00:08:46 437.305
ISS 24 Jul 00:07:40 00:10:54 69° 327° (NNW) 00:14:09 145.825
YUBILEINY 24 Jul 00:08:03 00:14:24 23° 281° (W) 00:20:45 435.215
DX 1 24 Jul 00:09:57 00:13:57 38° 70° (ENE) 00:17:58 434.975-435.025
ESTCUBE 1 24 Jul 00:14:37 00:19:07 83° 260° (W) 00:23:38 437.505/2401.250
50 SAT 24 Jul 00:16:10 00:19:48 62° 75° (ENE) 00:23:26 437.505
Cosmos 2504 24 Jul 00:26:31 00:34:14 45° 273° (W) 00:41:25 435.465 / 435.565
NANOSAT C BR1 24 Jul 00:29:03 00:32:39 26° 95° (E) 00:36:13 145.865
UKube-1 24 Jul 00:30:52 00:35:01 51° 72° (ENE) 00:39:12 .
PHONESAT 2.4 24 Jul 00:32:51 00:35:08 19° 206° (SSW) 00:37:25 2401.200-2431.200
DUCHIFAT 1 24 Jul 00:35:11 00:38:54 28° 96° (E) 00:42:34 145.980
AIST 2 24 Jul 00:35:45 00:38:19 16° 319° (NW) 00:40:54 435.215
ANTELSAT 24 Jul 00:42:53 00:47:08 35° 291° (WNW) 00:51:17 437.575/2403.000
TISAT 1 24 Jul 00:47:47 00:50:11 15° 64° (ENE) 00:52:36 437.305
VELOX 1 24 Jul 00:47:59 00:52:19 61° 259° (W) 00:56:41 145.980
QB50P1 24 Jul 00:48:46 00:52:55 45° 99° (E) 00:57:00 145.935-145.965
POPSAT HIP 1 24 Jul 00:54:48 00:59:01 52° 100° (E) 01:03:11 437.405
CUBEBUG 1 24 Jul 00:59:51 01:03:53 39° 262° (W) 01:07:56 437.445
BUGSAT 1 24 Jul 01:05:56 01:09:36 27° 96° (E) 01:13:15 437.445
AIST 1 24 Jul 01:06:02 01:09:39 25° 74° (ENE) 01:13:18
SPROUT 24 Jul 01:11:42 01:15:58 74° 259° (W) 01:20:16 437.525
QB50P2 24 Jul 01:14:40 01:18:58 86° 289° (WNW) 01:23:16 145.880/145.840
POLYITAN 1 24 Jul 01:17:18 01:21:38 84° 283° (WNW) 01:25:55 437.675
TIGRISAT 24 Jul 01:27:02 01:29:39 15° 298° (WNW) 01:32:13 435.000
AISAT 24 Jul 01:33:50 01:37:00 19° 266° (W) 01:40:11 437.250
Cosmos 2491 24 Jul 01:33:58 01:38:19 14° 303° (WNW) 01:42:42 435.465 / 435.565
AO-85 24 Jul 01:34:35 01:37:57 22° 249° (WSW) 01:41:06 145.980
UNISAT 6 24 Jul 01:44:10 01:44:29 10° 301° (WNW) 01:44:48 437.425
ISS 24 Jul 01:45:23 01:47:47 19° 346° (NNW) 01:50:12 145.825
DX 1 24 Jul 01:47:10 01:50:17 19° 266° (W) 01:53:24 434.975-435.025
Oscar 19 24 Jul 01:47:46 01:50:30 14° 90° (E) 01:53:13 437.125/150
JAS-2 24 Jul 01:48:20 01:53:27 51° 101° (E) 01:58:53 435.910
NANOSAT C BR1 24 Jul 02:04:41 02:08:20 28° 291° (WNW) 02:11:57 145.865
UKube-1 24 Jul 02:09:01 02:11:22 14° 268° (W) 02:13:42 .
SWISSCUBE 24 Jul 02:09:06 02:13:04 26° 66° (ENE) 02:17:02 437.505
DUCHIFAT 1 24 Jul 02:10:57 02:14:29 26° 292° (WNW) 02:18:00 145.980
GONETS M04 24 Jul 02:17:32 02:24:13 23° 64° (ENE) 02:30:52
TISAT 1 24 Jul 02:21:21 02:25:24 50° 260° (W) 02:29:32 437.305
QB50P1 24 Jul 02:25:33 02:28:19 17° 296° (WNW) 02:31:06 145.935-145.965
BEESAT 24 Jul 02:30:23 02:34:47 38° 70° (ENE) 02:39:13 436.000
POPSAT HIP 1 24 Jul 02:31:52 02:34:21 15° 297° (WNW) 02:36:50 437.405
Gurwin Techsat 1B 24 Jul 02:36:44 02:40:30 19° 92° (E) 02:44:13 435.225
BUGSAT 1 24 Jul 02:41:20 02:44:53 26° 292° (WNW) 02:48:25 437.445
AIST 1 24 Jul 02:43:33 02:47:11 26° 271° (W) 02:50:48
ITUPSAT 1 24 Jul 02:50:35 02:55:19 59° 72° (ENE) 03:00:03 437.325
ITAMSAT 1 24 Jul 03:14:05 03:16:31 13° 90° (E) 03:18:57 435.822/435.867
ISS 24 Jul 03:23:05 03:25:08 15° 6° (N) 03:27:12 145.825
Oscar 19 24 Jul 03:25:09 03:30:18 70° 287° (WNW) 03:35:26 437.125/150
JAS-2 24 Jul 03:34:29 03:38:15 20° 296° (WNW) 03:42:09 435.910
Cosmos 2499 24 Jul 03:36:58 03:44:39 47° 74° (ENE) 03:51:44 435.465 / 435.565
KKS-1 24 Jul 03:38:06 03:41:30 22° 66° (ENE) 03:44:54 437.445
MOZHAYETS 4 24 Jul 03:44:56 03:48:49 27° 67° (ENE) 03:52:41
SWISSCUBE 24 Jul 03:46:21 03:50:42 34° 263° (W) 03:55:05 437.505
BEESAT 24 Jul 04:08:52 04:12:40 23° 266° (W) 04:16:29 436.000
AO-7 24 Jul 04:08:59 04:15:32 25° 93° (E) 04:22:01 29.400- 29.500
BEESAT 2 24 Jul 04:09:27 04:11:37 14° 40° (NE) 04:13:46 435.950
BEESAT 3 24 Jul 04:10:11 04:13:20 22° 46° (NE) 04:16:28 437.485
CUSAT 1 24 Jul 04:11:25 04:14:34 19° 95° (E) 04:17:15 437.405
GONETS M04 24 Jul 04:13:14 04:22:03 79° 265° (W) 04:30:51
Gurwin Techsat 1B 24 Jul 04:15:34 04:20:45 55° 289° (WNW) 04:25:56 435.225
PCSat 24 Jul 04:19:32 04:22:20 14° 38° (NE) 04:25:07 145.827
STARS 24 Jul 04:26:16 04:30:14 34° 69° (ENE) 04:34:14 437.465
ITUPSAT 1 24 Jul 04:30:46 04:33:31 15° 269° (W) 04:36:16 437.325
ITAMSAT 1 24 Jul 04:51:20 04:56:33 75° 286° (WNW) 05:01:42 435.822/435.867
CUBESAT XI-V 24 Jul 04:55:09 04:58:17 18° 65° (ENE) 05:01:25 437.345
ISS 24 Jul 04:59:15 05:02:17 35° 26° (NNE) 05:05:19 145.825
KKS-1 24 Jul 05:13:45 05:17:50 36° 262° (W) 05:21:58 437.445
MOZHAYETS 4 24 Jul 05:21:44 05:25:51 31° 264° (W) 05:30:00
Cosmos 2499 24 Jul 05:30:34 05:37:28 34° 275° (W) 05:43:55 435.465 / 435.565
DANDE 24 Jul 05:38:31 05:44:43 71° 99° (E) 05:49:21 436.750
BEESAT 2 24 Jul 05:45:56 05:49:57 76° 239° (WSW) 05:53:55 435.950
BEESAT 3 24 Jul 05:47:27 05:51:08 37° 244° (WSW) 05:54:47 437.485
CUSAT 1 24 Jul 05:52:36 05:56:29 28° 282° (WNW) 05:59:37 437.405
AO-7 24 Jul 06:00:39 06:08:59 73° 292° (WNW) 06:17:15 29.400- 29.500
PCSat 24 Jul 06:01:19 06:06:45 70° 59° (ENE) 06:12:08 145.827
STARS 24 Jul 06:03:15 06:06:39 22° 266° (W) 06:10:05 437.465
GONETS M04 24 Jul 06:12:53 06:17:20 15° 285° (WNW) 06:21:48
HORYU 2 24 Jul 06:28:09 06:32:37 65° 101° (ESE) 06:37:03 437.375
CUBESAT XI-V 24 Jul 06:30:50 06:35:18 48° 261° (W) 06:39:46 437.345
ITAMSAT 1 24 Jul 06:34:20 06:35:05 10° 304° (NW) 06:35:50 435.822/435.867
